EUTELSAT 16A

Last updated on Sun Jul 06 2025 00:02:44 GMT+0000 (Coordinated Universal Time)

1 37836U 11057A 25186.56793193 .00000120 00000+0 00000+0 0 9997 2 37836 0.0645 13.2513 0005699 92.0568 38.9314 1.00272315 3853
UTC large
Height (km)
Speed (km/s)
/
Latitude / Longitude
Inclination (degrees)
Orbital Period (minutes)
Azimuth
Elevation
Range (km)
Doppler Factor

Next 0 passes for location: London (51.5072 / 0.1276)

Sorry there are no passes over London.